Sunday, September 22, 2019, 12:09 PM EDT
Back to Local

KORH, Worcester Regional Airport

Location: Worcester, MA, United States Lat: 42.267
Local Time: 12:09 PM EDT (16:09 GMT) Lon: -71.867
Time Zone: US/Eastern Elev: 1010 ft

Show me the last for .
Show Coded

Time T Td Feel RH Dir Speed Gust Alt SLP Vis Weather Sky Remarks
2019-09-22 10:54 74 58 77 57 240° 10 - 30.16 30.15 10 CLR None
2019-09-22 09:54 71 58 76 63 240° 9 - 30.17 30.16 10 CLR None
2019-09-22 08:54 67 56 - 67 250° 9 - 30.17 30.16 10 CLR None
2019-09-22 07:54 64 55 - 72 260° 9 - 30.18 30.17 10 CLR 6-hr Min Temp (8am): 57.9°F
6-hr Max Temp (8am): 64.0°F
2019-09-22 06:54 61 54 - 77 260° 7 - 30.17 30.16 10 CLR None
2019-09-22 05:54 61 53 - 75 250° 7 - 30.18 30.16 10 CLR None
2019-09-22 04:54 62 54 - 74 250° 8 - 30.18 30.16 10 CLR None
2019-09-22 03:54 61 55 - 80 250° 8 - 30.18 30.16 10 CLR None
2019-09-22 02:54 62 56 - 80 250° 6 - 30.18 30.17 10 CLR None
2019-09-22 01:54 63 57 - 80 260° 9 - 30.20 30.19 10 CLR 6-hr Min Temp (2am): 61.0°F
6-hr Max Temp (2am): 70.0°F
2019-09-22 00:54 61 57 - 86 250° 9 - 30.20 30.19 10 CLR 24-hr Min Temp (1am): 59.0°F
24-hr Max Temp (1am): 79.0°F
2019-09-21 23:54 65 58 - 78 260° 9 - 30.19 30.18 10 CLR None
2019-09-21 22:54 65 59 - 81 250° 8 - 30.19 30.18 10 CLR None
2019-09-21 21:54 68 59 - 72 260° 8 - 30.19 30.18 10 CLR None
2019-09-21 20:54 67 59 - 75 260° 8 - 30.19 30.18 10 CLR None
2019-09-21 19:54 70 59 - 68 260° 8 - 30.18 30.17 10 CLR 6-hr Min Temp (8pm): 70.0°F
6-hr Max Temp (8pm): 79.0°F
2019-09-21 18:54 72 60 76 66 260° 7 - 30.18 30.17 10 CLR None
2019-09-21 17:54 77 62 79 60 270° 5 - 30.18 30.17 10 CLR None
2019-09-21 16:54 79 60 80 52 240° 5 - 30.18 30.17 10 CLR None
2019-09-21 15:54 79 59 80 50 230° 6 - 30.18 30.17 10 CLR None
2019-09-21 14:54 78 60 80 54 220° 7 - 30.19 30.17 10 CLR None
2019-09-21 13:54 77 60 79 55 170° 7 - 30.19 30.18 10 CLR 6-hr Min Temp (2pm): 64.0°F
6-hr Max Temp (2pm): 78.1°F
2019-09-21 12:54 76 58 78 53 Variable 3 - 30.21 30.20 10 CLR None

Support USWX by starting your Amazon purchase here.